Weather History for Middle Wallop, United Kingdom

Change the Weather History Date:

Thursday, April 3, 2014

  Actual Average Record
Temperature  
Mean Temperature 56 °F -  
Max Temperature 61 °F 54 °F - ()
Min Temperature 50 °F 40 °F - ()
Degree Days  
Heating Degree Days 10    
Growing Degree Days 6 (Base 50)    
Moisture  
Dew Point 49 °F    
Average Humidity 77    
Maximum Humidity 94    
Minimum Humidity 57    
Precipitation  
Precipitation 0.00 in - - ()
Sea Level Pressure  
Sea Level Pressure 29.52 in    
Wind  
Wind Speed 6 mph ()    
Max Wind Speed 14 mph    
Max Gust Speed -    
Visibility 3.6 miles    
Events      
T = Trace of Precipitation, MM = Missing Value Source: Averaged Metar Reports

Daily Weather History Graph

Daily Weather History Graph

Search for Another Location

Airport:

Trip Planner

Search our weather history database for the weather conditions in past years. The results will help you decide how hot, cold, wet, or windy it might be!

Date:

Astronomy

Apr. 03, 2014 Rise Set
Actual Time 6:37 AM BST 7:42 PM BST
Civil Twilight 6:04 AM BST 8:16 PM BST
Nautical Twilight 5:23 AM BST 8:57 PM BST
Astronomical Twilight 4:39 AM BST 9:41 PM BST
Moon 8:34 AM BST (4/3) No Moon Set
Length of Visible Light 14h 12m
Length of Day
13h 04m
Waxing Crescent, 15% of the Moon is Illuminated
Apr 3
Waxing Crescent
Apr 7
First Quarter
Apr 15
Full
Apr 22
Last Quarter
Apr 29
New

Hourly Weather History & Observations

Time (BST) Temp. Dew Point Humidity Pressure Visibility Wind Dir Wind Speed Gust Speed Precip Events Conditions
12:00 AM 55 °F 48 °F 69% 29.55 in 7 mi East 5.8 mph - -   Overcast
12:50 AM 55.4 °F 48.2 °F 77% 29.53 in 6.2 mi East 3.5 mph - N/A   Overcast
1:00 AM 55 °F 48 °F 70% 29.54 in 7 mi East 3.5 mph - -   Overcast
1:50 AM 55.4 °F 48.2 °F 77% 29.53 in 6.2 mi ENE 3.5 mph - N/A   Mostly Cloudy
2:00 AM 55 °F 48 °F 71% 29.54 in 7 mi ENE 3.5 mph - -   Mostly Cloudy
2:50 AM 55.4 °F 48.2 °F 77% 29.50 in 6.2 mi NE 3.5 mph - N/A   Overcast
3:00 AM 54 °F 48 °F 74% 29.52 in 7 mi NE 3.5 mph - -   Mostly Cloudy
3:50 AM 50.0 °F 48.2 °F 94% 29.50 in 4.3 mi NW 2.3 mph - N/A   Overcast
4:00 AM 51 °F 48 °F 84% 29.52 in 4 mi NW 2.3 mph - -   Overcast
4:50 AM 53.6 °F 48.2 °F 82% 29.50 in 3.1 mi NE 5.8 mph - N/A   Overcast
5:00 AM 53 °F 49 °F 80% 29.51 in 3 mi NE 5.8 mph - -   Partly Cloudy
5:50 AM 53.6 °F 48.2 °F 82% 29.47 in 3.1 mi NE 5.8 mph - N/A   Mostly Cloudy
6:00 AM 53 °F 48 °F 79% 29.50 in 3 mi NE 5.8 mph - -   Mostly Cloudy
6:50 AM 51.8 °F 48.2 °F 88% 29.47 in 3.1 mi North 4.6 mph - N/A   Haze
7:00 AM 52 °F 48 °F 82% 29.50 in 3 mi North 4.6 mph - -   Haze
7:50 AM 53.6 °F 48.2 °F 82% 29.50 in 3.1 mi ENE 8.1 mph - N/A   Haze
8:00 AM 53 °F 48 °F 78% 29.52 in 3 mi ENE 8.1 mph - -   Haze
8:50 AM 53.6 °F 48.2 °F 82% 29.50 in 2.5 mi North 4.6 mph - N/A   Haze
9:00 AM 53 °F 49 °F 80% 29.52 in 2 mi North 4.6 mph - -   Haze
9:50 AM 57.2 °F 50.0 °F 77% 29.47 in 3.1 mi North 8.1 mph - N/A   Haze
10:00 AM 56 °F 49 °F 72% 29.49 in 3 mi North 8.1 mph - -   Haze
10:50 AM 59.0 °F 48.2 °F 67% 29.47 in 4.3 mi North 8.1 mph - N/A   Haze
11:00 AM 60 °F 49 °F 58% 29.49 in 4 mi North 8.1 mph - -   Haze
11:50 AM 60.8 °F 50.0 °F 68% 29.47 in 3.7 mi NNE 11.5 mph - N/A   Haze
12:00 PM 61 °F 50 °F 57% 29.49 in 4 mi NNE 11.5 mph - -   Haze
12:50 PM 60.8 °F 50.0 °F 68% 29.47 in 3.1 mi NNE 12.7 mph - N/A   Haze
1:00 PM 61 °F 50 °F 59% 29.49 in 3 mi NNE 12.7 mph - -   Haze
1:50 PM 60.8 °F 50.0 °F 68% 29.50 in 3.1 mi NE 11.5 mph - N/A   Haze
2:00 PM 60 °F 51 °F 63% 29.51 in 3 mi NE 11.5 mph - -   Haze
2:50 PM 60.8 °F 50.0 °F 68% 29.47 in 3.1 mi NNE 10.4 mph - N/A   Haze
3:00 PM 60 °F 50 °F 62% 29.50 in 3 mi NNE 10.4 mph - -   Haze
3:50 PM 59.0 °F 50.0 °F 72% 29.47 in 3.1 mi NNE 10.4 mph - N/A   Haze
4:00 PM 59 °F 51 °F 66% 29.50 in 3 mi NNE 10.4 mph - -   Haze
4:50 PM 59.0 °F 51.8 °F 77% 29.50 in 3.1 mi North 3.5 mph - N/A   Haze
5:00 PM 58 °F 51 °F 71% 29.51 in 3 mi North 3.5 mph - -   Haze
5:50 PM 59.0 °F 50.0 °F 72% 29.50 in 6.2 mi SSE 1.2 mph - N/A   Overcast
6:00 PM 58 °F 51 °F 69% 29.52 in 3 mi SSE 1.2 mph - -   Overcast
6:50 PM 57.2 °F 51.8 °F 82% 29.53 in 2.8 mi WNW 2.3 mph - N/A   Haze
7:00 PM 57 °F 51 °F 76%  in 3 mi WNW 2.3 mph - -   Haze
7:50 PM 53.6 °F 50.0 °F 88% 29.53 in 1.8 mi West 13.8 mph - N/A   Mostly Cloudy
8:00 PM 54 °F 51 °F 84% 29.56 in 2 mi West 13.8 mph - -   Scattered Clouds
8:50 PM 51.8 °F 50.0 °F 94% 29.56 in - NW 10.4 mph - N/A   Mostly Cloudy
9:00 PM 52 °F 50 °F 89% 29.58 in 2 mi NW 10.4 mph - -   Scattered Clouds
9:50 PM 51.8 °F 50.0 °F 94% 29.59 in - WNW 11.5 mph - N/A   Mostly Cloudy
10:00 PM 52 °F 49 °F 88% 29.60 in 2 mi WNW 11.5 mph - -   Partly Cloudy
10:50 PM 51.8 °F 48.2 °F 88% 29.59 in - WNW 9.2 mph - N/A   Mostly Cloudy
11:00 PM 51 °F 48 °F 87% 29.62 in 2 mi WNW 9.2 mph - -   Mostly Cloudy
11:50 PM 51.8 °F 48.2 °F 88% 29.62 in 1.2 mi WNW 9.2 mph - N/A   Overcast